This is the latest recevied weather packets stored in our database for station/object OK1LPD-6. If no packets are shown the sender has not sent any weather packets the latest 10 day(s).
| Time | Temp. | Humidity | Pressure | Rain* | Wind** | Luminosity | Snow |
|---|---|---|---|---|---|---|---|
| 1778068529 | 23.33° C | 43% | 1006.2 hPa | 0 mm | - | - | - |
| 1778067949 | 23.33° C | 43% | 1006.2 hPa | 0 mm | - | - | - |
| 1778067329 | 24.44° C | 44% | 1006.1 hPa | 0 mm | - | - | - |
| 1778066730 | 23.33° C | 43% | 1006.2 hPa | 0 mm | - | - | - |
| 1778066151 | 23.89° C | 44% | 1006.4 hPa | 0 mm | - | - | - |
| 1778065530 | 23.33° C | 45% | 1006.5 hPa | 0 mm | - | - | - |
| 1778064931 | 23.33° C | 45% | 1006.5 hPa | 0 mm | - | - | - |
| 1778064349 | 22.78° C | 46% | 1006.7 hPa | 0 mm | - | - | - |
| 1778063731 | 22.22° C | 50% | 1006.7 hPa | 0 mm | - | - | - |
| 1778063131 | 22.22° C | 50% | 1006.9 hPa | 0 mm | - | - | - |
| 1778062552 | 22.22° C | 50% | 1006.7 hPa | 0 mm | - | - | - |
| 1778061932 | 21.11° C | 51% | 1006.9 hPa | 0 mm | - | - | - |
| 1778061331 | 21.11° C | 51% | 1007 hPa | 0 mm | - | - | - |
| 1778060750 | 21.11° C | 50% | 1007 hPa | 0 mm | - | - | - |
| 1778060131 | 21.67° C | 52% | 1007 hPa | 0 mm | - | - | - |
| 1778059531 | 20.56° C | 53% | 1007 hPa | 0 mm | - | - | - |
| 1778058952 | 20° C | 53% | 1007 hPa | 0 mm | - | - | - |
| 1778058331 | 20° C | 54% | 1007 hPa | 0 mm | - | - | - |
| 1778057731 | 20.56° C | 54% | 1007.2 hPa | 0 mm | - | - | - |
| 1778057151 | 20° C | 57% | 1007.2 hPa | 0 mm | - | - | - |
| 1778056532 | 18.89° C | 60% | 1007.2 hPa | 0 mm | - | - | - |
| 1778055931 | 19.44° C | 58% | 1007.1 hPa | 0 mm | - | - | - |
| 1778055354 | 19.44° C | 60% | 1007.1 hPa | 0 mm | - | - | - |
| 1778054733 | 18.33° C | 61% | 1007.2 hPa | 0 mm | - | - | - |
| 1778054132 | 18.89° C | 62% | 1007.2 hPa | 0 mm | - | - | - |
* Rain latest hour (hover to see other rain measurements)
** Current wind speed in m/s (hover to see current wind gust speed)